• In Lithuania
  • List of Countries
  • For 7 days
  • Water Temperature
  • Satellite Maps
  • Weather Map
  • Weather Widgets
  • user-avatar
    Login

    Hourly Weather Offenbach am Main

    Today, 14 December, Thursday

    Time Temperature Precipitation Wind Pressure Humidity
    00:00 +4°C° 0.9 mm 7 mps 734 mmHg 86%
    01:00 +5°C° 0 mm 5 mps 734 mmHg 86%
    02:00 +5°C° 0.3 mm 5 mps 734 mmHg 85%
    03:00 +4°C° 0.3 mm 4 mps 734 mmHg 85%
    04:00 +4°C° 0.3 mm 4 mps 734 mmHg 85%
    05:00 +3°C° 0.3 mm 5 mps 734 mmHg 79%
    06:00 +3°C° 0.3 mm 7 mps 735 mmHg 73%
    07:00 +2°C° 0 mm 7 mps 736 mmHg 66%
    08:00 +2°C° 0 mm 7 mps 736 mmHg 67%
    09:00 +2°C° 0 mm 7 mps 737 mmHg 68%
    10:00 +3°C° 0 mm 7 mps 738 mmHg 70%
    11:00 +3°C° 0.2 mm 7 mps 738 mmHg 70%
    12:00 +3°C° 0.2 mm 6 mps 738 mmHg 71%
    13:00 +4°C° 0.2 mm 6 mps 738 mmHg 72%
    14:00 +4°C° 0.6 mm 6 mps 737 mmHg 73%
    15:00 +4°C° 0.6 mm 6 mps 737 mmHg 74%
    16:00 +4°C° 0.6 mm 6 mps 736 mmHg 76%
    17:00 +3°C° 0.5 mm 5 mps 736 mmHg 78%
    18:00 +3°C° 0.5 mm 5 mps 736 mmHg 80%
    19:00 +4°C° 0.5 mm 4 mps 735 mmHg 82%
    20:00 +4°C° 0.2 mm 4 mps 735 mmHg 85%
    21:00 +3°C° 0.2 mm 3 mps 734 mmHg 87%
    22:00 +3°C° 0.2 mm 3 mps 734 mmHg 90%
    23:00 +4°C° 0.4 mm 2 mps 734 mmHg 91%

    Tomorrow, 15 December, Friday

    Time Temperature Precipitation Wind Pressure Humidity
    00:00 +4°C° 0.4 mm 2 mps 734 mmHg 92%
    01:00 +4°C° 0.4 mm 2 mps 733 mmHg 94%
    02:00 +4°C° 0.4 mm 2 mps 734 mmHg 91%
    03:00 +3°C° 0.4 mm 3 mps 734 mmHg 88%
    04:00 +3°C° 0.4 mm 4 mps 735 mmHg 86%
    05:00 +2°C° 0.1 mm 3 mps 735 mmHg 86%
    06:00 +2°C° 0.1 mm 3 mps 736 mmHg 87%
    07:00 +1°C° 0.1 mm 3 mps 737 mmHg 87%
    08:00 +1°C° 0.1 mm 4 mps 737 mmHg 86%
    09:00 +1°C° 0.1 mm 4 mps 737 mmHg 85%
    10:00 +1°C° 0.1 mm 4 mps 738 mmHg 84%
    11:00 +3°C° 0.5 mm 4 mps 738 mmHg 83%
    12:00 +3°C° 0.5 mm 4 mps 738 mmHg 83%
    13:00 +3°C° 0.5 mm 4 mps 738 mmHg 82%
    14:00 +3°C° 0.2 mm 4 mps 738 mmHg 82%
    15:00 +3°C° 0.2 mm 4 mps 738 mmHg 83%
    16:00 +3°C° 0.2 mm 4 mps 739 mmHg 83%
    17:00 +2°C° 0 mm 3 mps 739 mmHg 85%
    18:00 +3°C° 0 mm 2 mps 739 mmHg 88%
    19:00 +2°C° 0 mm 2 mps 740 mmHg 90%
    20:00 +3°C° 0 mm 1 mps 740 mmHg 91%
    21:00 +2°C° 0 mm 1 mps 741 mmHg 92%
    22:00 +2°C° 0 mm 1 mps 741 mmHg 92%
    23:00 +2°C° 0 mm 1 mps 741 mmHg 92%

    Day after tomorrow, 16 December, Saturday

    Time Temperature Precipitation Wind Pressure Humidity
    00:00 +2°C° 0 mm 1 mps 742 mmHg 93%
    01:00 +2°C° 0 mm 1 mps 742 mmHg 93%
    02:00 +2°C° 0 mm 1 mps 742 mmHg 93%
    03:00 +2°C° 0 mm 1 mps 743 mmHg 93%
    04:00 +2°C° 0 mm 1 mps 743 mmHg 92%
    05:00 +2°C° 0 mm 1 mps 744 mmHg 92%
    06:00 +2°C° 0 mm 1 mps 744 mmHg 92%
    07:00 +1°C° 0 mm 2 mps 745 mmHg 92%
    08:00 +1°C° 0 mm 2 mps 745 mmHg 91%
    09:00 +2°C° 0 mm 2 mps 746 mmHg 90%
    10:00 +2°C° 0 mm 2 mps 747 mmHg 90%
    11:00 +3°C° 0 mm 2 mps 747 mmHg 87%
    12:00 +2°C° 0 mm 3 mps 748 mmHg 84%
    13:00 +3°C° 0 mm 3 mps 748 mmHg 81%
    14:00 +3°C° 0 mm 3 mps 748 mmHg 82%
    15:00 +2°C° 0 mm 3 mps 749 mmHg 82%
    16:00 +3°C° 0 mm 2 mps 749 mmHg 82%
    17:00 +2°C° 0 mm 2 mps 750 mmHg 84%
    18:00 +2°C° 0 mm 2 mps 750 mmHg 86%
    19:00 +1°C° 0 mm 2 mps 751 mmHg 87%
    20:00 +1°C° 0 mm 2 mps 752 mmHg 88%
    21:00 +1°C° 0 mm 2 mps 752 mmHg 88%
    22:00 +1°C° 0 mm 2 mps 753 mmHg 89%
    23:00 -1°C° 0 mm 2 mps 753 mmHg 90%

    17 December, Sunday

    Time Temperature Precipitation Wind Pressure Humidity
    00:00 -1°C° 0 mm 2 mps 754 mmHg 90%
    01:00 -1°C° 0 mm 2 mps 754 mmHg 91%
    02:00 -1°C° 0 mm 2 mps 754 mmHg 91%
    03:00 -1°C° 0 mm 2 mps 755 mmHg 91%
    04:00 -1°C° 0 mm 3 mps 755 mmHg 91%
    05:00 -1°C° 0 mm 2 mps 756 mmHg 91%
    06:00 -1°C° 0 mm 2 mps 756 mmHg 91%
    07:00 -1°C° 0 mm 2 mps 757 mmHg 91%
    08:00 0°C° 0 mm 3 mps 757 mmHg 89%
    09:00 0°C° 0 mm 3 mps 758 mmHg 88%
    10:00 0°C° 0 mm 3 mps 758 mmHg 87%
    11:00 +1°C° 0 mm 3 mps 758 mmHg 85%
    12:00 +1°C° 0 mm 3 mps 759 mmHg 83%
    13:00 +2°C° 0 mm 3 mps 759 mmHg 82%
    14:00 +2°C° 0 mm 3 mps 759 mmHg 82%
    15:00 +2°C° 0 mm 3 mps 759 mmHg 83%
    16:00 +2°C° 0 mm 3 mps 760 mmHg 84%
    17:00 +2°C° 0.1 mm 3 mps 760 mmHg 85%
    18:00 +1°C° 0.1 mm 3 mps 760 mmHg 85%
    19:00 +1°C° 0.1 mm 3 mps 760 mmHg 86%
    20:00 +1°C° 0 mm 3 mps 761 mmHg 87%
    21:00 +1°C° 0 mm 3 mps 761 mmHg 88%
    22:00 0°C° 0 mm 3 mps 761 mmHg 90%
    23:00 +1°C° 0 mm 3 mps 761 mmHg 89%

    18 December, Monday

    Time Temperature Precipitation Wind Pressure Humidity
    00:00 0°C° 0 mm 4 mps 760 mmHg 89%
    01:00 0°C° 0 mm 4 mps 760 mmHg 88%
    02:00 0°C° 0.2 mm 4 mps 759 mmHg 88%
    03:00 0°C° 0.2 mm 5 mps 759 mmHg 88%
    04:00 +1°C° 0.2 mm 6 mps 758 mmHg 88%
    05:00 +2°C° 1.1 mm 6 mps 757 mmHg 88%
    06:00 +2°C° 1.1 mm 6 mps 757 mmHg 88%
    07:00 +3°C° 1.1 mm 7 mps 756 mmHg 88%
    08:00 +3°C° 1.6 mm 7 mps 756 mmHg 89%
    09:00 +4°C° 1.6 mm 7 mps 756 mmHg 89%
    10:00 +4°C° 1.6 mm 6 mps 756 mmHg 89%
    11:00 +4°C° 1 mm 6 mps 756 mmHg 89%
    12:00 +6°C° 1 mm 5 mps 756 mmHg 89%
    13:00 +6°C° 1 mm 5 mps 756 mmHg 88%
    14:00 +5°C° 0.1 mm 4 mps 756 mmHg 88%
    15:00 +5°C° 0.1 mm 4 mps 756 mmHg 88%
    16:00 +5°C° 0.1 mm 3 mps 756 mmHg 87%
    17:00 +4°C° 0 mm 3 mps 757 mmHg 87%
    18:00 +4°C° 0 mm 3 mps 757 mmHg 86%
    19:00 +5°C° 0 mm 2 mps 758 mmHg 86%
    20:00 +4°C° 0 mm 2 mps 759 mmHg 87%
    21:00 +4°C° 0 mm 2 mps 759 mmHg 88%
    22:00 +4°C° 0 mm 2 mps 760 mmHg 89%
    23:00 +3°C° 0 mm 2 mps 761 mmHg 90%

    19 December, Tuesday

    Time Temperature Precipitation Wind Pressure Humidity
    00:00 +3°C° 0 mm 2 mps 761 mmHg 90%
    01:00 +3°C° 0 mm 2 mps 762 mmHg 91%
    02:00 +3°C° 0 mm 2 mps 762 mmHg 91%
    03:00 +3°C° 0 mm 2 mps 762 mmHg 92%
    04:00 +4°C° 0 mm 1 mps 763 mmHg 92%
    05:00 +3°C° 0 mm 1 mps 763 mmHg 92%
    06:00 +3°C° 0 mm 1 mps 764 mmHg 92%
    07:00 +3°C° 0 mm 1 mps 764 mmHg 92%
    08:00 +3°C° 0 mm 1 mps 764 mmHg 91%
    09:00 +4°C° 0 mm 1 mps 765 mmHg 91%
    10:00 +3°C° 0 mm 0 mps 765 mmHg 90%
    11:00 +4°C° 0 mm 1 mps 765 mmHg 87%
    12:00 +5°C° 0 mm 1 mps 765 mmHg 84%
    13:00 +5°C° 0 mm 1 mps 765 mmHg 82%
    14:00 +5°C° 0 mm 1 mps 765 mmHg 83%
    15:00 +4°C° 0 mm 1 mps 764 mmHg 85%
    16:00 +4°C° 0 mm 1 mps 764 mmHg 87%
    17:00 +4°C° 0 mm 1 mps 764 mmHg 88%
    18:00 +3°C° 0 mm 1 mps 764 mmHg 89%
    19:00 +3°C° 0 mm 1 mps 765 mmHg 90%
    20:00 +3°C° 0 mm 1 mps 765 mmHg 91%
    21:00 +2°C° 0 mm 1 mps 765 mmHg 91%
    22:00 +2°C° 0 mm 1 mps 765 mmHg 92%
    23:00 +2°C° 0 mm 1 mps 764 mmHg 92%
    Show more